JAS2727 FAGM-FALA

Flight info

Callsign JAS2727
Flight time N/A
Altitude 9000
Route DCT
Aircraft SF50/L-VGD/A

Departure

Time 2026-04-25 10:20
Airport Rand Airport (FAGM)

Arrival

Time N/A
Airport Lanseria International Airport (FALA)
Time Latitude Longitude Altitude Speed Heading
2026-04-25 09:57 -26.24191 28.15703 5490 ft 0 kts 309°
2026-04-25 10:06 -26.24214 28.15702 5490 ft 14 kts 124°
2026-04-25 10:06 -26.24227 28.15742 5491 ft 0 kts 137°
2026-04-25 10:18 -26.24247 28.15732 5491 ft 21 kts 265°
2026-04-25 10:18 -26.24248 28.15566 5486 ft 61 kts 270°
2026-04-25 10:19 -26.24273 28.14919 5540 ft 107 kts 262°
2026-04-25 10:19 -26.24320 28.14503 5696 ft 117 kts 266°
2026-04-25 10:20 -26.24393 28.12748 6618 ft 134 kts 284°
2026-04-25 10:20 -26.24254 28.12295 6902 ft 133 kts 296°
2026-04-25 10:21 -26.24030 28.11801 7180 ft 137 kts 294°
2026-04-25 10:21 -26.23854 28.11352 7393 ft 143 kts 294°
2026-04-25 10:21 -26.23579 28.10325 7648 ft 164 kts 285°
2026-04-25 10:22 -26.23391 28.09758 7846 ft 168 kts 295°
2026-04-25 10:22 -26.23174 28.09260 8053 ft 170 kts 298°
2026-04-25 10:22 -26.22914 28.08695 8145 ft 180 kts 297°
2026-04-25 10:22 -26.22640 28.08074 8197 ft 190 kts 296°
2026-04-25 10:23 -26.22348 28.07438 8197 ft 201 kts 297°
2026-04-25 10:23 -26.21629 28.06063 7808 ft 232 kts 304°
2026-04-25 10:23 -26.21267 28.05365 7636 ft 239 kts 297°
2026-04-25 10:24 -26.20000 28.02217 7646 ft 233 kts 293°
2026-04-25 10:25 -26.19721 28.01461 7699 ft 231 kts 292°
2026-04-25 10:25 -26.19468 28.00704 7785 ft 228 kts 291°
2026-04-25 10:25 -26.19245 27.99965 7824 ft 228 kts 289°